Showing default

ASTRA 1A, 19688

Orbit data source: Space-Track

ASTRA 1A, 19688 is a payload satellite owned by SES (LU) in GEO that was launched on Sun, 11 Dec 1988 UTC via an ARIANE 44LP launch vehicle from the French Guiana (FRGUI). Payload-class satellites include a variety of spacecraft equipped with specific instruments for various scientific and technological missions. These include communications satellites like Starlink; space stations such as the ISS; scientific satellites like the Hubble; Earth observation satellites from companies like Planet Labs, Umbra, and HawkEye 360; GPS; miniature CubeSats for education and research; and military/defense satellites.

Loading next visibility...
Identifier
19688, 1988-109B
Orbit
GEO
Last TLE update
22 hours ago
Origin
Manufacturer
GE/East Windsor
Mission
Non-operational Commercial Communications
Bus & Motor
AS4000, STAR 37XFP
Mass
1,780 kg wet, ~850 kg dry
Launch date (UTC)
1988-12-11 (37 years ago)
Launch vehicle
ARIANE 44LP
Launch site
French Guiana (FRGUI)
Object type
Payload
Rocket body
Debris
Shape & HBR
Hex Poly + 2 Pan, 19.28 m
Radar Cross Section
11.738 m², Large (>1 m²)

Expand to show TLE details & history

TLE from 22 hours ago
0 ASTRA 1A
1 19688U 88109B   25183.60986685 -.00000064  00000-0  00000-0 0  9996
2 19688  14.6171   8.5298 0018017 118.4715 231.6625  0.98338783112648
Epoch: 2025-07-02T14:38Z
TLE epoch observation values (Epoch: 2025-07-02T14:38:12.495Z)
Latitude
-2.52465°
Longitude
-141.6185°
Altitude
36,384.988 km
Speed
3.051 km/s
True Right ascension
23h 55m 17s
True Declination
-2° 31' 20"
Sunlit
Object was in daylight at epoch
Visualization orbit readout
Latitude
-10.86603°
Longitude
-179.20805°
Altitude
36,413.957 km
Speed
3.049 km/s
Apparent Right ascension
21h 05m 22s
Apparent Declination
-17° 28' 28"
Sunlit
Object is in daylight
Visualization observer readout
Local Sidereal Time
00:13:17
Azimuth
227.108° WSW
Elevation
17.845°
Doppler factor
1
Orbital elements
Apogee altitude
36,415.264 km
Perigee altitude
36,261.339 km
Semi-major axis
42,716.439 km
Eccentricity
0.0018
Inclination
14.6171°
RAAN
8.5298°
Arg. of periapsis
118.4715°
True anomaly
Unknown
Mean anomaly
231.6625°
Eccentric anomaly
Unknown
Mean motion
0.24584 °/min
Orbital period
1,464.37 mins
BSTAR
0
Loading historical data...
19688 neighbors
Loading maneuver chart data...
Loading SW <> Apogee altitude chart data...
Loading historical data...
Loading historical data...
Loading historical data...
Loading historical data...
Loading historical data...
Loading historical data...
Loading historical data...

ASTRA 1A Visibility forecast

Observer location: undefined°, undefined°

Span
Click to sort rows by Start time (UTC) header in descending order
Start Az.
Max El. time (UTC)
Max El. Az.
Max El.
End time (UTC)
End Az.
1440 mins2025-07-03 12:26:38.089Z227.096° WSW2025-07-03 22:08:38.089Z250.864° W30.368°2025-07-04 12:26:38.089Z232.461° WSW
|